Location: Newark
(21.1200°N, 73.4000°E)
Time: 10:34:12
(UTC+00:00)

Vanguard 1 Rocket - Pass Details

Date: 18 January 2021
Orbit: 654 x 4223 km, 34.3° (Epoch: 07 March)

Event Time Altitude Azimuth Distance (km) Brightness Sun altitude
Rises 14:55:13 0° 291° (WNW) 4,139 11.6 -29.3°
Reaches altitude 10° 14:57:31 10° 286° (WNW) 3,462 11.1 -29.8°
Maximum altitude 15:06:27 56° 210° (SSW) 2,418 9.5 -31.8°
Drops below altitude 10° 15:23:58 10° 138° (SE) 6,414 11.4 -35.9°
Sets 15:30:10 0° 135° (SE) 7,883 11.9 -37.3°
